Regional Weather Roundup
Issued by NWS

Home | Current Version | Previous Version | Text Only | Print | Product List | Glossary On
Versions: 1 2 3 4 5 6 7 8 9 10 11 12 13 14 15 16 17 18 19 20 21 22 23 24 25 26 27 28 29 30 31 32 33 34 35 36 37 38 39 40 41 42 43 44 45 46 47 48 49 50
000
ASPQ40 PGUM 031814
RWRPQ
WEATHER ROUNDUP FOR THE MARIANAS AND MICRONESIA
NATIONAL WEATHER SERVICE TIYAN GU
400 AM CHST TUE AUG 04 2015

GUZ001>004-031900-
MARIANA ISLANDS-

CITY           SKY/WX    TMP DP  RH WIND       PRES   REMARKS
GUAM AIRPORT   MOCLDY    79  75  89 S6        29.63R
ANDERSEN AFB   LGT RAIN  77  75  94 S17       29.63R FOG
ROTA AIRPORT   NOT AVBL
TINIAN AP      NOT AVBL
SAIPAN AP      NOT AVBL

$$

PMZ161-031900-
REPUBLIC OF PALAU-

CITY           SKY/WX    TMP DP  RH WIND       PRES   REMARKS
KOROR AP       LGT RAIN  81  75  83 W17G29    29.71F
KOROR WSO      CLOUDY    82  75  78 W13       29.74F

$$

PMZ171>174-031900-
FEDERATED STATES OF MICRONESIA-

CITY           SKY/WX    TMP DP  RH WIND       PRES   REMARKS
YAP AIRPORT    MOCLDY    82  77  83 SW9       29.66S HX  91
CHUUK AP       CLOUDY    77  77 100 SW14      29.77F
POHNPEI AP     NOT AVBL
POHNPEI WSO    MOCLDY    77  75  94 CALM      29.79F
KOSRAE AP      NOT AVBL

$$

PMZ181-031900-
REPUBLIC OF THE MARSHALL ISLANDS-

CITY           SKY/WX    TMP DP  RH WIND       PRES   REMARKS
KWAJALEIN AP   CLEAR     82  73  74 N3        29.76R
MAJURO AP      NOT AVBL
MAJURO WSO     CLOUDY    81  77  89 E6        29.73R

$$



USA.gov is the U.S. government's official web portal to all federal, state and local government web resources and services.